Wind_Speed
14 14 15 15 15 16 16 13 13 13 13 15 15 16 16 16 16 16 16 17 16 14 12 13 13 14 12 11 10 9 8 7 6 5 4 4 4 4 4 3 3 3 2
15 16 17 16 16 16 17 15 14 15 14 14 15 15 17 18 17 16 16 16 15 15 13 13 14 15 14 12 11 10 9 8 7 6 6 5 5 5 5 5 4 3 3
15 16 17 17 18 17 17 16 14 14 14 14 14 13 14 16 16 17 16 17 17 17 16 15 15 16 15 14 13 12 11 10 9 8 7 7 6 5 5 5 5 4 4
15 17 17 18 18 16 16 14 12 13 13 13 13 13 14 16 17 17 18 18 18 17 17 17 17 17 16 15 14 13 13 12 11 10 9 8 8 7 7 6 6 5 5
16 17 17 18 18 17 14 12 10 11 12 12 13 14 15 16 17 18 18 19 19 19 18 19 18 18 17 16 16 15 14 14 13 12 11 10 9 9 8 8 7 7 7
16 16 17 17 17 15 12 10 9 9 11 12 12 13 14 16 17 18 19 19 21 21 20 19 19 19 18 17 17 17 16 16 15 14 13 12 11 10 10 10 9 9 9
14 14 16 17 16 13 11 9 8 8 9 10 11 12 12 14 16 17 18 19 20 21 21 21 20 20 19 18 18 17 18 17 16 15 15 14 13 13 12 12 11 11 11
12 13 14 15 14 12 10 9 7 7 7 8 9 10 12 13 15 17 17 18 19 21 21 21 21 21 20 19 19 19 19 19 18 17 16 16 15 15 15 14 14 14 14
13 13 14 12 11 10 8 8 7 6 6 7 9 10 12 13 14 16 17 17 19 21 21 21 21 21 22 22 21 21 21 21 20 19 18 18 17 17 17 17 16 16 16
11 10 11 10 10 9 8 7 6 6 6 7 8 9 11 12 14 16 16 17 19 21 21 22 22 22 23 23 23 23 23 23 22 21 21 20 19 19 19 19 18 18 19
11 11 11 9 9 8 7 6 6 6 6 7 7 9 10 11 13 15 16 17 18 19 20 21 22 23 23 23 23 23 23 23 22 22 22 22 22 22 21 21 20 20 21
9 10 9 8 8 7 7 7 6 7 7 7 7 8 10 11 13 14 15 16 17 19 19 20 22 23 23 23 23 23 23 24 23 23 23 23 24 24 23 23 23 23 23
8 8 9 8 8 7 7 6 7 6 6 7 7 8 9 10 13 14 16 16 17 18 18 18 20 21 23 23 23 23 24 24 25 24 24 25 25 25 26 26 25 26 27
8 8 8 8 8 7 7 7 7 7 7 7 7 7 8 9 11 14 16 16 16 17 17 17 19 21 22 24 25 25 25 24 25 25 26 26 26 26 27 27 27 28 29
9 9 9 9 9 8 8 8 7 7 7 7 7 8 8 9 10 13 15 16 17 17 18 18 19 20 22 24 24 24 24 24 24 25 25 25 26 27 27 28 29 30 31
11 11 11 11 11 11 10 9 8 9 9 8 8 8 8 9 10 11 14 14 15 17 18 18 19 20 21 23 23 25 26 26 27 27 26 26 28 29 29 29 31 32 33
12 13 13 14 13 13 12 11 10 10 10 9 9 9 9 9 10 11 13 14 15 17 17 18 19 20 21 21 22 23 24 25 26 26 27 28 29 30 32 32 33 33 34
14 15 15 16 15 15 14 13 12 12 11 11 10 10 10 10 11 12 13 14 16 17 18 18 19 20 21 22 22 23 24 26 27 28 28 29 31 32 33 34 34 34 35
17 17 16 16 17 17 16 15 14 13 13 13 13 12 12 11 12 13 13 14 16 17 18 18 19 20 21 22 23 25 26 27 28 29 31 31 32 33 34 35 35 36 37
19 19 18 17 18 18 18 18 16 15 15 14 15 14 13 13 13 13 13 14 16 17 17 18 19 21 22 23 24 25 27 28 29 30 31 32 33 34 35 36 38 38 40
20 20 20 19 18 18 18 18 18 17 17 16 16 16 15 15 15 15 15 16 17 18 18 18 19 20 22 23 25 26 28 29 30 30 32 33 34 35 36 37 39 41 42
21 21 20 20 20 20 20 20 19 18 18 18 17 17 17 17 18 18 18 18 18 19 18 18 20 21 22 24 25 26 28 29 31 32 34 35 37 38 39 40 41 42 43
22 22 21 21 21 21 21 21 20 21 20 20 19 19 19 19 19 19 19 19 18 19 20 20 21 23 24 25 26 27 28 29 31 33 35 37 38 40 40 41 42 44 45
23 23 22 22 23 23 23 22 22 22 22 22 21 21 21 20 20 19 20 21 21 21 22 22 23 23 25 27 28 29 29 31 33 35 37 37 38 40 42 43 44 45 46
22 22 23 23 23 23 23 23 23 22 22 22 22 22 21 21 21 21 21 21 22 23 24 24 25 26 28 29 30 31 32 33 35 36 38 39 40 42 43 45 46 47 48
22 22 22 22 22 21 22 23 23 23 23 22 22 22 22 23 23 22 23 23 24 24 25 27 28 28 29 30 31 32 34 35 37 38 39 41 42 43 44 46 47 48 50
Wind_Direction
306 307 307 303 300 296 296 281 254 248 249 248 244 241 241 235 232 230 228 226 227 230 232 224 224 221 220 221 222 222 219 219 222 226 228 230 230 233 238 243 249 249 253
305 306 309 307 307 299 295 284 263 254 251 251 242 244 243 237 227 227 227 225 227 226 228 220 223 220 220 221 222 222 220 217 218 222 224 230 235 240 244 246 246 246 247
303 302 306 307 308 300 291 285 272 258 252 251 248 246 241 232 226 227 227 225 226 224 222 218 220 219 221 223 224 224 223 220 219 220 224 232 238 241 243 242 243 241 240
303 301 303 305 305 298 289 279 270 259 253 246 243 240 239 234 228 223 223 221 222 222 219 218 221 222 223 225 224 226 226 223 222 225 228 233 240 244 242 238 238 239 240
302 300 300 303 305 300 287 276 274 261 249 239 238 240 235 229 223 222 222 223 224 223 220 222 224 223 224 226 226 227 227 225 226 230 234 237 242 244 243 242 245 248 248
300 299 301 303 303 301 290 277 270 258 242 234 236 240 234 226 223 222 222 226 226 224 222 222 225 225 225 227 228 229 228 229 231 234 238 241 242 246 248 247 249 250 252
295 297 299 300 298 298 290 280 273 263 244 237 240 238 230 224 221 222 225 227 225 224 224 222 225 227 226 226 227 229 231 232 235 238 240 242 244 247 249 250 252 252 254
289 296 298 297 296 298 291 285 280 263 250 243 241 240 235 228 225 225 226 226 223 223 222 223 226 229 229 229 230 232 234 235 237 239 241 243 245 248 250 252 255 255 257
293 295 300 297 295 301 299 289 291 272 258 253 251 253 243 235 229 225 226 224 219 220 222 225 228 230 231 233 235 236 237 239 239 240 242 243 246 248 252 255 256 257 260
293 298 297 299 298 301 308 311 307 292 273 265 260 255 248 238 230 229 227 223 222 223 222 226 228 231 233 236 237 239 240 239 240 242 244 244 247 248 253 256 257 259 262
290 294 291 294 295 297 303 310 310 305 294 278 265 257 251 241 234 228 224 226 225 225 227 230 232 234 236 237 238 240 239 239 242 246 245 246 248 250 253 255 258 262 265
286 288 290 291 295 297 297 301 305 305 296 285 269 257 251 244 236 227 224 224 225 227 231 234 235 236 237 238 240 239 241 243 244 247 248 250 250 251 254 256 259 263 266
286 284 283 284 289 293 293 294 302 304 299 290 273 263 255 248 236 227 225 225 229 231 235 237 237 238 239 239 241 243 246 245 245 247 250 252 254 255 257 258 261 265 268
285 284 280 280 283 286 287 288 298 301 300 294 276 267 261 257 238 229 227 228 233 235 238 242 242 241 241 242 245 247 248 248 248 249 252 255 256 259 260 261 264 266 269
271 274 268 274 277 277 281 283 290 300 298 295 281 272 264 256 244 234 233 232 234 236 240 244 245 246 247 247 247 249 249 249 252 253 255 259 260 261 264 265 266 269 271
269 273 272 270 274 274 277 280 284 293 294 293 286 284 278 263 250 241 237 237 238 239 242 244 249 250 250 249 250 250 250 253 255 257 258 262 264 264 264 266 269 271 273
271 278 279 276 273 269 270 275 280 285 286 285 282 280 280 272 258 249 241 242 243 243 244 247 251 251 249 250 252 252 253 256 259 261 262 263 267 268 267 268 270 273 275
269 276 276 274 271 269 271 273 276 277 280 283 279 274 275 273 266 257 250 252 250 249 248 251 252 253 252 251 254 254 256 258 261 264 265 267 269 271 272 271 273 275 276
272 274 272 270 268 269 268 269 271 277 276 278 276 270 268 269 267 262 257 256 255 256 254 256 255 256 255 255 256 257 259 262 265 266 268 270 272 272 272 273 274 276 278
270 270 267 268 267 268 269 268 270 274 274 275 272 271 270 266 264 265 264 265 263 261 261 260 261 260 261 263 264 264 264 265 267 268 269 271 271 272 274 276 278 279 280
266 267 266 267 267 267 268 268 269 269 267 269 270 268 266 265 264 265 265 266 267 267 268 266 267 268 268 268 268 266 266 268 270 271 272 273 274 275 277 279 280 280 280
266 266 264 263 265 266 267 269 268 267 265 264 265 265 265 266 265 264 265 265 266 270 274 274 272 270 271 273 272 270 271 272 273 274 274 275 276 277 279 280 281 281 282
267 265 262 262 264 265 265 266 266 265 263 259 261 263 264 264 264 260 264 269 271 273 276 276 276 276 275 275 276 274 274 276 276 277 277 278 278 278 280 281 282 283 283
267 266 264 264 263 263 263 263 262 261 260 259 261 263 262 263 265 264 267 270 271 273 276 277 278 277 276 276 277 277 279 279 279 279 280 280 280 281 282 283 283 284 285
264 263 263 264 263 262 263 263 261 259 258 258 260 263 264 263 267 268 268 273 276 277 278 280 281 281 281 281 281 280 280 281 282 282 283 282 283 283 284 285 285 286 287
262 261 262 263 263 263 262 262 262 260 257 258 261 263 264 263 264 267 270 275 278 279 280 282 283 284 284 282 282 281 282 283 284 284 283 283 283 285 286 287 288 288 289
Height
5861 5859 5857 5855 5854 5852 5851 5849 5850 5850 5851 5852 5852 5854 5856 5858 5860 5862 5864 5866 5869 5871 5873 5875 5877 5880 5882 5884 5885 5886 5887 5889 5890 5891 5891 5892 5892 5892 5893 5893 5893 5893 5893
5858 5856 5855 5853 5851 5849 5848 5846 5846 5846 5846 5847 5848 5850 5852 5853 5856 5858 5861 5863 5866 5868 5871 5873 5875 5877 5880 5882 5883 5885 5886 5888 5889 5890 5891 5891 5892 5892 5892 5892 5892 5893 5893
5855 5854 5852 5850 5848 5846 5844 5842 5842 5842 5842 5843 5844 5846 5848 5849 5852 5855 5858 5861 5863 5866 5868 5870 5873 5875 5877 5879 5881 5883 5884 5886 5888 5889 5890 5890 5891 5891 5892 5891 5891 5892 5892
5852 5851 5849 5847 5845 5843 5841 5839 5838 5838 5838 5839 5841 5843 5844 5847 5849 5852 5855 5857 5860 5863 5865 5868 5870 5873 5875 5877 5879 5881 5883 5884 5886 5887 5888 5889 5889 5890 5890 5891 5890 5891 5891
5848 5847 5845 5844 5842 5840 5837 5836 5835 5835 5835 5836 5838 5840 5842 5844 5846 5849 5851 5854 5857 5860 5862 5865 5868 5870 5872 5875 5876 5879 5880 5882 5884 5885 5886 5887 5887 5888 5889 5889 5889 5890 5890
5845 5843 5842 5841 5839 5836 5835 5834 5832 5832 5832 5834 5836 5837 5839 5841 5843 5846 5848 5851 5854 5856 5859 5862 5865 5867 5869 5872 5874 5876 5878 5880 5881 5883 5884 5885 5886 5886 5887 5887 5888 5888 5888
5841 5841 5839 5838 5836 5834 5833 5832 5830 5830 5830 5831 5833 5835 5836 5838 5840 5842 5845 5847 5850 5852 5855 5858 5861 5863 5866 5868 5871 5873 5875 5877 5878 5880 5881 5882 5883 5884 5884 5885 5885 5886 5886
5839 5838 5837 5835 5834 5832 5830 5829 5828 5829 5829 5830 5831 5832 5833 5835 5836 5838 5841 5843 5846 5849 5852 5855 5857 5860 5863 5865 5867 5869 5871 5873 5875 5877 5878 5879 5880 5881 5881 5882 5882 5883 5883
5836 5836 5834 5833 5832 5830 5829 5828 5827 5827 5827 5828 5828 5829 5830 5832 5833 5835 5837 5839 5842 5845 5848 5851 5854 5856 5859 5861 5864 5866 5868 5869 5871 5873 5874 5876 5877 5877 5878 5879 5879 5880 5880
5833 5833 5832 5832 5830 5829 5828 5827 5826 5825 5826 5826 5826 5827 5827 5828 5830 5832 5834 5836 5839 5841 5844 5847 5850 5852 5855 5857 5859 5861 5863 5865 5867 5869 5870 5871 5873 5873 5874 5875 5875 5876 5876
5831 5831 5830 5830 5829 5828 5827 5826 5825 5825 5824 5824 5824 5824 5825 5826 5827 5828 5830 5833 5835 5838 5841 5844 5846 5848 5851 5853 5855 5857 5859 5861 5862 5864 5866 5867 5868 5869 5870 5870 5871 5871 5871
5829 5829 5828 5828 5827 5827 5826 5825 5824 5823 5823 5822 5822 5822 5823 5823 5824 5825 5827 5830 5832 5835 5837 5840 5842 5844 5846 5848 5850 5852 5854 5856 5858 5859 5860 5862 5863 5863 5864 5865 5865 5866 5866
5827 5827 5826 5826 5826 5825 5824 5824 5823 5822 5821 5820 5820 5820 5820 5820 5821 5822 5825 5827 5829 5832 5834 5836 5838 5840 5842 5844 5846 5848 5849 5851 5852 5853 5855 5856 5857 5857 5858 5859 5859 5860 5859
5825 5825 5825 5824 5824 5823 5822 5822 5821 5820 5820 5819 5818 5818 5818 5818 5818 5820 5822 5824 5826 5828 5830 5832 5834 5836 5837 5839 5841 5843 5844 5846 5847 5848 5849 5850 5851 5851 5852 5852 5853 5853 5853
5822 5823 5823 5822 5822 5821 5821 5820 5820 5819 5818 5817 5817 5816 5815 5816 5816 5817 5819 5820 5822 5824 5826 5828 5830 5831 5833 5834 5836 5837 5839 5840 5842 5842 5843 5844 5844 5845 5845 5845 5845 5845 5845
5819 5819 5819 5819 5819 5819 5818 5818 5817 5817 5816 5815 5815 5814 5813 5813 5813 5814 5816 5817 5819 5821 5823 5824 5825 5827 5828 5829 5830 5832 5833 5835 5836 5837 5837 5837 5838 5838 5838 5838 5838 5837 5836
5816 5816 5816 5816 5816 5815 5815 5815 5814 5814 5814 5813 5813 5813 5812 5811 5811 5812 5813 5814 5816 5817 5818 5820 5821 5822 5823 5824 5825 5826 5828 5829 5829 5830 5830 5830 5831 5830 5830 5829 5829 5828 5827
5812 5812 5812 5812 5812 5812 5812 5811 5811 5811 5811 5811 5810 5810 5810 5810 5810 5810 5811 5811 5812 5813 5815 5815 5816 5817 5818 5819 5820 5821 5822 5823 5823 5824 5823 5823 5823 5822 5822 5821 5820 5819 5817
5807 5808 5808 5808 5808 5807 5807 5807 5808 5808 5808 5808 5808 5808 5808 5808 5808 5808 5808 5808 5809 5809 5809 5810 5811 5812 5813 5814 5814 5815 5816 5816 5817 5816 5816 5815 5814 5814 5813 5812 5811 5809 5807
5802 5802 5803 5803 5803 5803 5803 5804 5804 5804 5804 5804 5804 5804 5804 5805 5805 5805 5805 5805 5805 5805 5805 5805 5806 5807 5808 5808 5808 5809 5809 5809 5809 5808 5807 5807 5806 5805 5803 5802 5801 5799 5797
5796 5797 5797 5797 5797 5798 5798 5799 5799 5799 5800 5800 5800 5800 5800 5801 5801 5801 5801 5801 5801 5801 5801 5801 5801 5802 5802 5802 5802 5801 5801 5801 5800 5800 5799 5798 5797 5796 5794 5793 5791 5789 5786
5790 5791 5791 5792 5792 5792 5793 5793 5793 5794 5795 5795 5795 5795 5795 5796 5796 5796 5796 5796 5797 5797 5796 5796 5796 5796 5796 5795 5795 5794 5794 5793 5792 5791 5790 5789 5787 5786 5784 5782 5780 5777 5775
5784 5784 5785 5785 5786 5787 5787 5788 5788 5788 5789 5789 5790 5790 5790 5790 5790 5791 5791 5791 5791 5791 5791 5790 5790 5789 5788 5788 5787 5786 5785 5784 5783 5782 5781 5779 5777 5775 5773 5770 5768 5765 5763
5777 5777 5778 5779 5779 5780 5781 5781 5782 5782 5783 5783 5784 5784 5784 5784 5785 5785 5785 5785 5785 5785 5784 5784 5783 5782 5781 5780 5779 5778 5777 5775 5774 5772 5770 5768 5766 5764 5761 5759 5756 5753 5750
5770 5771 5771 5772 5773 5773 5774 5775 5776 5776 5776 5777 5777 5778 5779 5779 5779 5778 5779 5779 5778 5778 5777 5776 5775 5774 5773 5772 5771 5770 5768 5766 5764 5762 5760 5757 5755 5752 5750 5746 5743 5740 5736
5764 5764 5765 5765 5766 5767 5768 5768 5769 5769 5770 5771 5771 5771 5772 5772 5773 5773 5772 5772 5772 5771 5770 5769 5768 5766 5765 5763 5762 5760 5758 5756 5754 5752 5749 5746 5743 5740 5737 5733 5730 5726 5721